www.pogodaiklimat.ru

Погода и климат >> Архив погоды >> Иордания >> Аэропорт Королева Алия


ПОГОДА в Аэропорту Королева Алия

  • Прогноз погоды в Аэропорту Королева Алия
  • Монитор погоды в Аэропорту Королева Алия

АРХИВ ПОГОДЫ в Аэропорту Королева Алия

Время (UTC), дата Ветер
(напр.,м/с)
 
Видим.   Явления Облачность Т
(С)
Тd
(С)
f
(%)
Тe
(С)
Тes
(С)
Комфортность P
(гПа)
Po
(гПа)
Тmin
(С)
Tmax
(С)
R
(мм)
R24
(мм)
S
(см)
21 11.09 З 2 6000 м мгла ясно +20.2 +18.0 87 +24 +24 комфорт 1012.1 932.5
00 12.09 СЗ 4 6000 м мгла ясно +17.8 +16.5 92 +18 +18 1011.6 932.0
03 12.09 штиль 0 6000 м дымка ясно +15.8 +15.0 95 +16 +16 1012.5 932.3
06 12.09 ЮЗ 2 5000 м мгла ясно +20.8 +17.5 81 +25 +31 комфорт 1012.6 932.5 +15.0
09 12.09 З 6 5000 м мгла ясно +27.1 +13.7 44 +29 +36 жарко 1011.9 932.1
12 12.09 СЗ 7 5000 м мгла ясно +29.5 +13.4 37 +31 +34 жарко 1011.0 931.3
15 12.09 З 7 5000 м мгла ясно +27.5 +13.7 43 +30 +30 жарко 1010.3 930.1
18 12.09 З 4 7000 м мгла ясно +23.4 +16.4 65 +28 +28 душно 1011.8 931.6 +32.2
21 12.09 З 3 7000 м мгла ясно +19.2 +16.0 82 +21 +21 комфорт 1011.1 931.3
00 13.09 штиль 0 7000 м мгла ясно +17.4 +15.1 86 +17 +17 1010.0 930.3
03 13.09 З 4 6000 м дымка ясно +17.0 +15.9 93 +17 +17 1010.3 930.3
06 13.09 штиль 0 5000 м мгла ясно +22.3 +14.4 61 +26 +34 жарко 1010.7 930.8 0.0
09 13.09 штиль 0 6000 м мгла ясно +29.3 +11.6 33 +30 +52 опасность
солнечного
удара
1009.5 930.1
12 13.09 З 5 8000 м мгла ясно +30.8 +14.2 36 +32 +38 жарко 1007.9 928.6
15 13.09 З 5 7000 м мгла ясно +30.0 +9.3 28 +30 +30 жарко 1007.6 928.1
18 13.09 СЗ 3 7000 м мгла ясно +23.2 +14.7 59 +27 +27 душно 1008.3 928.6 +32.4
21 13.09 штиль 0 7000 м мгла ясно +20.4 +15.2 72 +23 +23 комфорт 1008.1 928.9
00 14.09 штиль 0 7000 м мгла ясно +18.0 +13.2 74 +18 +18 1007.6 928.4
03 14.09 штиль 0 6000 м мгла ясно +17.4 +13.3 77 +17 +17 1007.3 927.9
06 14.09 З 3 5000 м мгла ясно +22.4 +19.2 82 +28 +33 душно 1008.0 928.3 +15.0
09 14.09 З 5 5000 м мгла ясно +28.2 +16.2 48 +31 +40 душно 1007.2 928.0
12 14.09 З 5 5000 м мгла ясно +30.0 +16.0 43 +33 +39 душно 1006.5 927.2
15 14.09 З 6 5000 м мгла ясно +27.4 +16.7 52 +31 +31 душно 1006.8 927.1
18 14.09 З 6 5000 м мгла ясно +23.0 +18.7 77 +29 +29 очень
душно
1008.3 928.6 +30.5
21 14.09 З 3 6000 м мгла ясно +20.0 +17.6 86 +23 +23 комфорт 1008.4 929.0
00 15.09 З 2 6000 м дымка 3/3 1050 м
[Cu hum]
+16.5 +15.5 94 +17 +17 1007.6 928.1
03 15.09 штиль 0 5000 м дымка ясно +15.2 +13.8 91 +15 +15 984.5 906.6
06 15.09 ЮЗ 2 4000 м мгла ясно +26.2 +12.5 43 +28 +34 жарко 1009.5 930.2 +15.0
09 15.09 З 6 5000 м мгла 1/1 900 м
[Cu hum]
+26.8 +13.8 45 +29 +34 жарко 1009.3 929.7
12 15.09 З 8 5000 м мгла 5/5 1050 м
[Cu hum]
+28.0 +11.1 35 +29 +30 жарко 1008.5 928.6
15 15.09 З 6 5000 м мгла 4/4 1050 м
[Cu hum]
+25.8 +13.7 47 +28 +28 жарко 1009.1 928.7
18 15.09 З 4 6000 м мгла 3/3 1050 м
[Cu hum]
+22.2 +14.3 61 +25 +25 комфорт 1011.3 930.3 +29.2
21 15.09 З 4 6000 м мгла 3/3 1050 м
[Cu hum]
+19.2 +14.9 76 +21 +21 комфорт 1012.0 930.5
00 16.09 З 3 6000 м дымка 3/3 1050 м
[Cu hum]
+18.2 +16.3 89 +19 +19 1011.9 930.3
03 16.09 штиль 0 4000 м дымка 3/3 1050 м
[Cu hum]
+15.8 +14.5 92 +16 +16 1013.1 931.1
06 16.09 штиль 0 5000 м мгла ясно +19.5 +15.4 77 +21 +29 комфорт 1012.2 931.7 +13.0
09 16.09 З 5 5000 м мгла 4/4 1050 м
[Cu hum]
+27.0 +12.8 41 +29 +33 жарко 1011.5 931.7
12 16.09 ЮЗ 5 5000 м мгла 3/3 1050 м
[Cu hum]
+29.0 +9.2 29 +29 +33 жарко 1010.6 930.9
15 16.09 З 4 5000 м мгла ясно +28.0 +11.3 35 +29 +29 жарко 1010.5 930.4
18 16.09 З 4 6000 м мгла ясно +24.0 +14.9 57 +27 +27 жарко 1012.2 931.4 +30.6
21 16.09 штиль 0 6000 м мгла ясно +20.2 +15.7 75 +23 +23 комфорт 1014.2 932.8
00 17.09 СЗ 3 6000 м дымка ясно +18.2 +16.3 89 +19 +19 1013.4 931.8
03 17.09 В 2 4000 м дымка ясно +14.2 +12.4 89 +14 +14 1014.7 932.4
06 17.09 штиль 0 5000 м мгла ясно +23.0 +14.1 57 +26 +34 жарко 1014.3 933.2 +13.0
09 17.09 С 4 6000 м мгла ясно +29.0 +9.1 29 +29 +39 жарко 1012.8 932.6
12 17.09 З 6 6000 м мгла ясно +31.6 +11.8 30 +32 +36 жарко 1011.1 931.4
15 17.09 З 5 6000 м мгла ясно +30.0 +10.3 29 +30 +30 жарко 1011.5 931.6
18 17.09 С 4 6000 м мгла ясно +24.2 +8.3 36 +25 +25 комфорт 1013.2 932.4 +33.4
21 17.09 С 4 6000 м мгла ясно +21.0 +9.0 46 +23 +23 комфорт 1013.7 932.4
00 18.09 СЗ 2 6000 м мгла ясно +17.4 +9.3 59 +18 +18 1013.5 931.8
03 18.09 СЗ 2 6000 м мгла ясно +15.6 +8.4 62 +16 +16 1015.3 933.2
06 18.09 В 5 6000 м мгла ясно +26.0 +5.1 26 +25 +28 комфорт 1012.9 933.4 +13.6
09 18.09 В 8 3000 м мгла ясно +32.4 +8.5 23 +31 +34 жарко 1012.6 933.5
12 18.09 ЮВ 4 5000 м мгла ясно +36.8 +13.4 25 +37 +44 очень
жарко
1009.6 930.9
15 18.09 СЗ 6 5000 м мгла ясно +34.0 +10.0 23 +33 +33 жарко 1009.9 930.8
18 18.09 СЗ 4 5000 м мгла ясно +28.0 +11.0 35 +29 +29 жарко 1011.1 932.2 +37.0

 

Местоположение метеостанции Аэропорт Королева Алия (Иордания): широта 31.72 долгота 35.98 высота над уровнем моря 722 м.

В архиве по умолчанию представлена погода в Аэропорту Королева Алия за последнюю неделю. Архивные данные за месяц целиком и за предыдущие месяцы, начиная с января 2011 года, Вы можете получить, выбрав интересующий диапазон дат из раскрывающегося списка и нажав кнопку "Ввод!".


*Определитесь, кто Вы:
робот инопланетянин человек

Внимание! Время в таблицах - всемирное. Для получения местного времени необходимо прибавить поправку, которая равна 2 ч.

Смотрите также архив погоды в соседних городах и на ближайших метеорологических станциях:

Погода в Аммане (Иордания) (29 км)
Погода в Иерусалиме (Израиль) (72 км)
Погода в Эль-Мафраке (Иордания) (77 км)
Погода в Гавр-эс-Сафи (Иордания) (91 км)
Погода в Ирбиде (Иордания) (93 км)
Погода в Седоме (Израиль) (95 км)
Погода в Даръа (Сирия) (99 км)
Погода в Израильском мет сервисе (Израиль) (114 км)
Погода в Тель-Авиве (Израиль) (121 км)
Погода в Аэропорту Принц Хассан (Иордания) (121 км)

Пояснения к столбцам:

Ветер - указаны скорость ветра в м/с - средняя за 10 мин, порывы в срок и между сроками (в фигурных скобках) и направление, откуда дует ветер: С - северный, СВ - северо-восточный, В - восточный, ЮВ - юго-восточный, Ю - южный, ЮЗ - юго-западный, З - западный, СЗ - северо-западный.
Видимость - горизонтальная дальность видимости в метрах или километрах. При видимости от 1 до 10 км при отсутствии осадков обычно наблюдается дымка, при ухудшении видимости до 1 км и менее - туман. В сухую погоду видимость может ухудшаться дымом, пылью или мглою.
Явления - указаны атмосферные явления, наблюдавшиеся в срок или в последний час перед сроком; фигурными скобками обозначены явления, наблюдавшиеся между сроками (за 1-3 часа до срока); квадратными скобками обозначены град или гололедные отложения с указанием их диаметра в мм.
Облачность - указаны через наклонную черту общая и нижняя облачность в баллах и высота нижней границы облаков в метрах; квадратными скобками обозначены формы облаков: Ci - перистые, Cs - перисто-слоистые, Cc - перисто-кучевые, Ac - высококучевые, As - высокослоистые, Sc - слоисто-кучевые, Ns - слоисто-дождевые, Cu - кучевые, Cb - кучево-дождевые. Подробнее классификацию облаков см. в Атласе облаков (PDF).
T - Температура воздуха - температура, измеренная на высоте 2 м над землей.
Td - Температура точки росы - температура, при понижении до которой содержащийся в воздухе водяной пар достигнет насыщения.
f - Относительная влажность воздуха - влажноcть воздуха, измеренная на высоте 2 м над землей.
Te - Эффективная температура - температура, которую ощущает одетый по сезону человек в тени. Характеристика душности погоды. При расчете учитывается влияние влажности воздуха и скорости ветра на теплоощущения человека.
Tes - Эффективная температура на солнце - температура, которую ощущает человек, с поправкой на солнечный нагрев. Характеристика знойности погоды. Зависит от высоты солнца над горизонтом, облачности и скорости ветра. Ночью, в пасмурную погоду, а также при ветре 12 м/с и более поправка равна нулю.
P - Атмосферное давление - приведенное к уровню моря атмосферное давление.
Po - Атмосферное давление - измеренное на уровне метеостанции атмосферное давление.
Tmin - Минимальная температура - минимум температуры воздуха на высоте 2 м над землей.
Tmax - Максимальная температура - максимум температуры воздуха на высоте 2 м над землей.
R - Количество осадков - Количество выпавших осадков за период времени, мм. При наведении курсора мыши на число - период времени, за который выпало указанное количество осадков.
R24 - Количество осадков - Количество выпавших осадков за 24 часа, мм.
S - Снежный покров - Высота снежного покрова, см. При наведении курсора мыши на число - состояние снежного покрова и степень покрытия местности в баллах.